Regional Weather Roundup
Issued by NWS Huntsville, AL

Home | Current Version | Previous Version | Text Only | Print | Product List | Glossary On
Versions: 1 2 3 4 5 6 7 8 9 10 11 12 13 14 15 16 17 18 19 20 21 22 23 24 25 26 27 28 29 30 31 32 33 34 35 36 37 38 39 40 41 42 43 44 45 46 47 48 49 50
000
ASUS44 KHUN 202010
RWRHUN

WEATHER ROUNDUP FOR THE TENNESSEE VALLEY
NATIONAL WEATHER SERVICE HUNTSVILLE AL
200 PM CST FRI JAN 20 2017

ALZ001>004-202100-
NORTHWEST ALABAMA

CITY           SKY/WX    TMP DP  RH WIND       PRES   REMARKS
COURTLAND HCN    N/A     70 N/A N/A SW13        N/A
RUSSELLVILLE     N/A     68 N/A N/A MISG        N/A
SHOALS AIRPORT MOSUNNY   70  54  56 S15G23    29.74F
SHOALS TVA RES   N/A     68 N/A N/A MISG        N/A
$$

ALZ005>007-016-202100-
NORTH CENTRAL ALABAMA

CITY           SKY/WX    TMP DP  RH WIND       PRES   REMARKS
CULLMAN AG STN   N/A     68 N/A N/A SW9         N/A
DECATUR AP     PTSUNNY   69  57  65 SW14      29.76F
HUNTSVILLE AP  PTSUNNY   70  55  59 S15       29.76F
MERIDIANVILLE  MOSUNNY   68  50  52 S12G17    29.77F
REDSTONE ARSN  PTSUNNY   70  54  57 SW15      29.75F
VINEMONT AP    MOCLDY    68  53  58 S16G22    29.79F
$$

ALZ008>010-202100-
NORTHEAST ALABAMA

CITY           SKY/WX    TMP DP  RH WIND       PRES   REMARKS
ALBERTVILLE    MOSUNNY   68  59  73 SW14G20   29.79S
FORT PAYNE     MOSUNNY   70  50  49 SW12      29.78F
SCOTTSBORO AP  MOSUNNY   70  54  56 SW9G21    29.79S
SCOTTSBORO HCN   N/A     70 N/A N/A MISG        N/A
VALLEY HEAD      N/A     68 N/A N/A MISG        N/A
$$

TNZ076-096-097-202100-
SOUTHEASTERN MIDDLE TENNESSEE

CITY           SKY/WX    TMP DP  RH WIND       PRES   REMARKS
TULLAHOMA      MOSUNNY   64  52  63 S13       29.77F
WINCHESTER     PTSUNNY   66  52  59 SW9       29.77F
$$

...SURROUNDING SITES...

CITY           SKY/WX    TMP DP  RH WIND       PRES   REMARKS
ATLANTA        MOSUNNY   73  54  51 W14       29.82F
ANNISTON       MOSUNNY   71  57  61 SW13G22   29.81F
BIRMINGHAM     PTSUNNY   70  57  63 SW9       29.81F
CHATTANOOGA    PTSUNNY   70  52  52 S6        29.78F
CORINTH        CLOUDY    66  55  68 S10G17    29.70F
DALTON         PTSUNNY   70  52  52 SW7       29.80S
GADSDEN        PTSUNNY   73  57  57 SW10G17   29.79F
GOLDEN TRNGL   NOT AVBL
HALEYVILLE     FAIR      68  55  63 S13       29.78S
JACKSON TN     PTSUNNY   63  55  75 S9G20     29.67F
MEMPHIS        PTSUNNY   66  55  67 S18G26    29.66F
NASHVILLE      PTSUNNY   69  52  54 S16G22    29.72F
OXFORD MS      FAIR      66  54  63 S9G21     29.71F
ROME           PTSUNNY   72  54  53 W9        29.79F
SAVANNAH       PTSUNNY   64  57  77 S9G17     29.71S
TUPELO         MOSUNNY   69  56  62 SE14      29.71F
TUSCALOOSA     MOSUNNY   74  57  55 SW14      29.76F
$$

...GULF COAST WEATHER...

CITY           SKY/WX    TMP DP  RH WIND       PRES   REMARKS
GULFPORT       MOSUNNY   72  69  90 S9        29.79F
PASCAGOULA     CLOUDY    71  67  87 VRB3      29.81F
MOBILE         PTSUNNY   75  67  76 S12       29.81F
GULF SHORES    CLOUDY    71  71 100 SW8       29.82F
PENSACOLA      CLOUDY    72  70  94 SW8       29.82S
DESTIN         CLOUDY    74  72  93 W9        29.83S
PANAMA CITY    LGT RAIN  72  69  90 S12       29.85F
APPALACHICOLA  PTSUNNY   73  69  87 S10       29.87F
$$




USA.gov is the U.S. government's official web portal to all federal, state and local government web resources and services.